Location: DaVinci Observatory
(43.1080°N, 78.6453°W)
Time: 18:03:06
(UTC-04:00)

OTV 5 (USA 277) - Pass Details

Date: 10 October 2017
Orbit: 404 x 417 km, 43.0° (Epoch: 07 September)

Event Time Altitude Azimuth Distance (km) Brightness Sun altitude
Rises 19:42:32 0° 226° (SW) 2,345 ? -12.3°
Reaches altitude 10° 19:44:49 10° 214° (SW) 1,485 ? -12.7°
Maximum altitude 19:47:44 28° 154° (SSE) 818 ? -13.2°
Enters shadow 19:48:51 23° 119° (ESE) 947 ? -13.4°
